Torna al catalogo

SL-12 R/B(2)

AttivoHEO
NORAD 26090·ROCKET BODY·🇷🇺 Russia

Lanciato Feb 12, 2000 da Baikonur Cosmodrome

Loading…

Prossimi Passaggi (prossime 24 ore)

TLE

AggiornatoSource: Space-Track

Epoca: Sep 14, 2026, 13:19 UTC

1 26090U 00011B   26257.55508072 -.00000127  00000-0  00000+0 0  9993
2 26090  16.0202 219.7517 5328865 337.8771 249.3355  1.90707368185203

Traccia SL-12 R/B(2) in tempo reale con AllMySat

Download on the App Store